Weather History for Skagway, AK

Change the Weather History Date:

Sunday, March 3, 2013

  Actual Average Record
Temperature  
Mean Temperature 32 °F -  
Max Temperature 37 °F 32 °F 46 °F (2005)
Min Temperature 26 °F 24 °F 3 °F (2007)
Degree Days  
Heating Degree Days 34    
Moisture  
Dew Point 24 °F    
Average Humidity 77    
Maximum Humidity 89    
Minimum Humidity 60    
Precipitation  
Precipitation 0.00 in - - ()
Sea Level Pressure  
Sea Level Pressure 30.41 in    
Wind  
Wind Speed 0 mph (SW)    
Max Wind Speed 6 mph    
Max Gust Speed -    
Visibility 10 miles    
Events      
Averages and records for this station are not official NWS values.
T = Trace of Precipitation, MM = Missing Value Source: NWS Daily Summary

Daily Weather History Graph

Daily Weather History Graph

Search for Another Location

Airport:

Trip Planner

Search our weather history database for the weather conditions in past years. The results will help you decide how hot, cold, wet, or windy it might be!

Date:

Astronomy

Mar. 03, 2013 Rise Set
Actual Time 6:51 AM AKST 5:35 PM AKST
Civil Twilight 6:10 AM AKST 6:16 PM AKST
Nautical Twilight 5:23 AM AKST 7:04 PM AKST
Astronomical Twilight 4:34 AM AKST 7:52 PM AKST
Moon 12:58 AM AKST (3/3) 8:34 AM AKST (3/3)
Length of Visible Light 12h 06m
Length of Day
10h 44m
Waning Gibbous, 62% of the Moon is Illuminated
Mar 3
Waning Gibbous
Mar 4
Last Quarter
Mar 11
New
Mar 19
First Quarter
Mar 27
Full

Hourly Weather History & Observations

Time (AKST) Temp. Windchill Dew Point Humidity Pressure Visibility Wind Dir Wind Speed Gust Speed Precip Events Conditions
12:53 AM 27.0 °F - 23.0 °F 85% 30.23 in 10.0 mi Calm Calm - N/A   Clear
1:53 AM 26.1 °F - 21.9 °F 84% 30.26 in 10.0 mi Calm Calm - N/A   Clear
3:53 AM 26.1 °F - 21.9 °F 84% 30.31 in 10.0 mi Calm Calm - N/A   Mostly Cloudy
4:53 AM 27.0 °F - 21.0 °F 78% 30.32 in 10.0 mi Calm Calm - N/A   Overcast
5:53 AM 27.0 °F - 21.9 °F 81% 30.33 in 10.0 mi Calm Calm - N/A   Overcast
6:53 AM 28.0 °F - 21.9 °F 78% 30.34 in 10.0 mi Calm Calm - N/A   Overcast
7:53 AM 28.9 °F - 23.0 °F 78% 30.35 in 10.0 mi Calm Calm - N/A   Overcast
8:53 AM 30.0 °F - 23.0 °F 75% 30.37 in 10.0 mi Calm Calm - N/A   Overcast
9:53 AM 30.9 °F - 25.0 °F 79% 30.38 in 10.0 mi Calm Calm - N/A   Overcast
10:53 AM 32.0 °F 28.7 °F 25.0 °F 75% 30.39 in 10.0 mi SSW 3.5 mph - N/A   Overcast
11:53 AM 33.1 °F - 24.1 °F 70% 30.41 in 10.0 mi Calm Calm - N/A   Mostly Cloudy
12:53 PM 35.1 °F - 24.1 °F 64% 30.41 in 10.0 mi Calm Calm - N/A   Partly Cloudy
1:53 PM 36.0 °F 33.3 °F 26.1 °F 67% 30.42 in 10.0 mi WSW 3.5 mph - N/A   Scattered Clouds
2:53 PM 37.9 °F 33.5 °F 25.0 °F 60% 30.42 in 10.0 mi SW 5.8 mph - N/A   Scattered Clouds
3:53 PM 37.9 °F - 26.1 °F 62% 30.43 in 10.0 mi Calm Calm - N/A   Overcast
4:53 PM 37.9 °F - 25.0 °F 60% 30.45 in 10.0 mi Calm Calm - N/A   Mostly Cloudy
5:53 PM 34.0 °F - 27.0 °F 75% 30.46 in 10.0 mi Calm Calm - N/A   Overcast
6:53 PM 32.0 °F - 26.1 °F 79% 30.48 in 10.0 mi Calm Calm - N/A   Mostly Cloudy
7:53 PM 30.9 °F - 26.1 °F 82% 30.50 in 10.0 mi Calm Calm - N/A   Mostly Cloudy
8:53 PM 30.0 °F - 26.1 °F 85% 30.51 in 10.0 mi Calm Calm - N/A   Overcast
9:53 PM 30.0 °F - 26.1 °F 85% 30.51 in 10.0 mi Calm Calm - N/A   Overcast
10:53 PM 28.0 °F - 25.0 °F 88% 30.52 in 10.0 mi Calm Calm - N/A   Clear
11:53 PM 27.0 °F - 24.1 °F 89% 30.53 in 10.0 mi Calm Calm - N/A   Clear